Weather History for Comox, BC

Change the Weather History Date:

Tuesday, May 21, 2013

  Actual Average Record
Temperature  
Mean Temperature 48 °F -  
Max Temperature 54 °F 66 °F 68 °F (2001)
Min Temperature 43 °F 49 °F 43 °F (2013)
Degree Days  
Heating Degree Days 16    
Moisture  
Dew Point 44 °F    
Average Humidity 84    
Maximum Humidity 95    
Minimum Humidity 66    
Precipitation  
Precipitation 0.12 in 0.05 in - ()
Sea Level Pressure  
Sea Level Pressure 29.83 in    
Wind  
Wind Speed 7 mph ()    
Max Wind Speed 13 mph    
Max Gust Speed -    
Visibility 18.2 miles    
Events Rain    
Averages and records for this station are not official NWS values.
T = Trace of Precipitation, MM = Missing Value Source: Averaged Metar Reports

Daily Weather History Graph

Daily Weather History Graph

Search for Another Location

Airport:

Trip Planner

Search our weather history database for the weather conditions in past years. The results will help you decide how hot, cold, wet, or windy it might be!

Date:

Astronomy

May. 21, 2013 Rise Set
Actual Time 5:26 AM PDT 9:06 PM PDT
Civil Twilight 4:46 AM PDT 9:46 PM PDT
Nautical Twilight 3:51 AM PDT 10:42 PM PDT
Astronomical Twilight 2:32 AM PDT 12:02 AM PDT
Moon 5:08 PM PDT (5/21) 3:20 AM PDT (5/21)
Length of Visible Light 17h 00m
Length of Day
15h 39m
Waxing Gibbous, 85% of the Moon is Illuminated
May 21
Waxing Gibbous
May 24
Full
May 31
Last Quarter
Jun 8
New
Jun 16
First Quarter

Hourly Weather History & Observations

Time (PDT) Temp. Windchill Dew Point Humidity Pressure Visibility Wind Dir Wind Speed Gust Speed Precip Events Conditions
12:00 AM 48.2 °F - 44.6 °F 87% 29.95 in 20.0 mi NW 6.9 mph - N/A Rain Light Rain
1:00 AM 48.2 °F - 44.6 °F 87% 29.92 in 20.0 mi NW 9.2 mph - N/A Rain Light Rain
2:00 AM 46.4 °F 41.5 °F 44.6 °F 93% 29.89 in 20.0 mi NW 10.4 mph - N/A Rain Light Rain
3:00 AM 46.4 °F 42.4 °F 44.6 °F 93% 29.87 in 15.0 mi NW 8.1 mph - N/A Rain Light Rain
4:00 AM 44.6 °F 38.4 °F 41.0 °F 87% 29.85 in 20.0 mi NW 12.7 mph - N/A Rain Light Rain
5:00 AM 44 °F - 41 °F 87% 29.85 in 19 mi NW 9.2 mph - - Rain Light Rain
5:00 AM 44.6 °F 39.7 °F 41.0 °F 87% 29.85 in 20.0 mi NW 9.2 mph - N/A Rain Light Rain
6:00 AM 42.8 °F 38.6 °F 41.0 °F 93% 29.84 in 10.0 mi WNW 6.9 mph - N/A Rain Light Rain
7:00 AM 44.6 °F 41.4 °F 41.0 °F 87% 29.84 in 20.0 mi WNW 5.8 mph - N/A Rain Light Rain
8:00 AM 44.6 °F 41.4 °F 41.0 °F 87% 29.83 in 15.0 mi WNW 5.8 mph - N/A Rain Light Rain
9:00 AM 44.6 °F 40.7 °F 42.8 °F 93% 29.82 in 15.0 mi NW 6.9 mph - N/A Rain Light Rain
10:00 AM 48.2 °F - 44.6 °F 87% 29.81 in 20.0 mi NW 9.2 mph - N/A Rain Light Rain
10:16 AM - - - N/A% - 20.0 mi NNW 8.1 mph - N/A   Overcast
10:30 AM - - - N/A% - 20.0 mi NNW 11.5 mph - N/A Rain Light Rain
11:00 AM 48 °F - 44 °F 79% 29.81 in 19 mi NNW 11.5 mph - - Rain Light Rain
11:00 AM 48.2 °F - 42.8 °F 82% 29.81 in 20.0 mi NW 11.5 mph - N/A Rain Light Rain
11:37 AM - - - N/A% - 20.0 mi North 10.4 mph - N/A   Overcast
12:00 PM 50.0 °F - 44.6 °F 82% 29.80 in 20.0 mi North 10.4 mph - N/A   Overcast
1:00 PM 50.0 °F - 44.6 °F 82% 29.81 in 20.0 mi North 8.1 mph - N/A   Overcast
2:00 PM 51.8 °F - 44.6 °F 76% 29.80 in 20.0 mi North 9.2 mph - N/A   Overcast
3:00 PM 53.6 °F - 44.6 °F 72% 29.80 in 20.0 mi North 8.1 mph - N/A   Overcast
4:00 PM 53.6 °F - 44.6 °F 72% 29.79 in 20.0 mi North 5.8 mph - N/A   Overcast
5:00 PM 52 °F - 44 °F 66% 29.80 in 19 mi East 3.5 mph - -   Partly Cloudy
5:00 PM 51.8 °F - 44.6 °F 76% 29.80 in 20.0 mi ENE 2.3 mph - N/A   Overcast
6:00 PM 53.6 °F - 44.6 °F 72% 29.79 in 20.0 mi SSE 4.6 mph - N/A   Overcast
7:00 PM 51.8 °F - 44.6 °F 76% 29.78 in 20.0 mi South 5.8 mph - N/A   Overcast
7:41 PM - - - N/A% - 15.0 mi SSE 3.5 mph - N/A Rain Light Rain
8:00 PM 51.8 °F - 46.4 °F 82% 29.80 in 15.0 mi SSE 2.3 mph - N/A Rain Light Rain
9:00 PM 50.0 °F - 46.4 °F 87% 29.80 in 15.0 mi South 2.3 mph - N/A Rain Light Rain
10:00 PM 50.0 °F - 46.4 °F 87% 29.82 in 15.0 mi South 2.3 mph - N/A Rain Light Rain
11:00 PM 49 °F - 48 °F 95% 29.82 in 15 mi South 3.5 mph - - Rain Light Rain
11:00 PM 50.0 °F - 48.2 °F 94% 29.82 in 15.0 mi South 3.5 mph - N/A Rain Light Rain